星链-37682(STARLINK-37682)

导读

STARLINK-37682(NORAD编号:69209)是SpaceX星链(Starlink)互联网卫星星座的一员,属于低轨通信卫星,承担全球宽带互联网覆盖服务任务。该卫星由SpaceX公司制造发射,运行在近地轨道,通过星链星座组网为偏远地区、海洋及航空场景提供高速网络接入,补充地面通信基础设施覆盖不足。作为星链批量部署的卫星之一,它延续了星链星座低成本、标准化设计思路,依托星座规模化优势提升全球网络连通能力,目前处于可跟踪运行状态,参与全球卫星互联网服务组网。

基本信息
目录编号:
69209
目录名称:
STARLINK-37682
国际标识:
2026-114AD
轨道中心:
EARTH
卫星名称:
星链-37682
卫星全名:
星链-37682(STARLINK-37682)
卫星状态:
在轨 (已飞行111 天)
发射日期:
2026-05-25 UTC
国别 :
美国 (US)
星等 :
--
该卫星已列入 空间交会检测服务 Space Conjunction Data Service (SCDS) ,当前飞行风险评估等级: 无高风险
轨道信息
数据来源 国际轨道数据 AOE轨道数据
星历时间 2026-09-13T07:12:21+0800
15小时前
查看轨道信息
2026-09-12T22:00:00+0800
1天前
查看轨道信息
半长轴 6840.821km 6840.916km
偏心率 0.000136 0.0001534
轨道倾角 53.158° 53.158°
近地点辐角 76.014° 75.175°
升交点赤经 148.634° 150.428°
平近点角 284.101° 324.935°
近地点 461.753km 461.729km
远地点 463.615km 463.829km
周期 93.847分钟 93.849分钟
每日圈数 15.344066 15.343746
详细信息
固有亮度:
5
最大亮度:
2.5
卫星平台:
Starlink V1.0
覆盖范围:
全球
运营商:
太空探索技术公司
运营商所在国:
美国
制造商(研发单位):
太空探索技术公司
制造商所在国:
美国
使用方式:
暂无
卫星简介
Starlink 计划是 SpaceX 推出的全球卫星互联网项目,通过发射低轨道卫星,为全球尤其是偏远地区提供高速、低延迟的互联网服务。自 2019 年起,Starlink 已部署数千颗卫星,旨在缩小全球数字鸿沟,推动互联网普及。该项目还为军事、航空等行业提供通信支持,带来广泛经济效益。
2D轨道图
3D轨道图
轨道高度分析图
轨道倾角分析图
轨道综合分析图
查看轨道综合分析图
交会数据列表
事件ID 空间交会对象 最接近时刻(TCA) 交会距离 交会风险概率(CRP) 交会风险指数(CRI) 操作
CDM_260915-194105-877806-920921
2026-09-15T
19:41:52+0000
0.551 km
远距离
1.042045E-4 高风险 0.75
CDM_260915-105905-898406-920921
2026-09-15T
10:59:33+0000
0.367 km
远距离
7.957869E-5 中风险 0.73
CDM_260915-093205-877806-920921
2026-09-15T
09:32:13+0000
0.683 km
远距离
5.69896E-5 中风险 0.7
CDM_260915-101205-898406-920921
2026-09-15T
10:12:39+0000
0.950 km
远距离
4.140603E-6 低风险 0.47
CDM_260914-032406-321006-920922
2026-09-14T
03:24:38+0000
1.757 km
极远距离
2.261928E-6 低风险 0.42
CDM_260915-075805-877806-920921
2026-09-15T
07:58:25+0000
2.231 km
极远距离
1.428694E-6 低风险 0.38
CDM_260915-211505-877806-920921
2026-09-15T
21:15:39+0000
2.816 km
极远距离
9.640911E-7 极低风险 0.35
CDM_260915-114605-898406-920921
2026-09-15T
11:46:27+0000
2.597 km
极远距离
3.25539E-7 极低风险 0.25
CDM_260915-123305-898406-920921
2026-09-15T
12:33:21+0000
2.883 km
极远距离
2.904526E-7 极低风险 0.24
与全量物体交会距离演化趋势
与全量物体交会风险概率演化趋势